Miscellaneous Local Product
Issued by NWS North Platte, NE

Home | Current Version | Previous Version | Graphics & Text | Print | Product List | Glossary On
Versions: 1 2 3 4 5 6 7 8 9 10 11 12 13 14 15 16 17 18 19 20 21 22 23 24 25 26 27 28 29 30 31 32 33 34 35 36 37 38 39 40 41 42 43 44 45 46 47 48 49 50
000
AXUS43 KLBF 240210
MISLBF


WESTERN AND NORTH CENTRAL NEBRASKA HOURLY WEATHER ROUNDUP
NATIONAL WEATHER SERVICE NORTH PLATTE NE
900 PM CDT THU MAR 23 2017

NOTE: "FAIR" INDICATES FEW OR NO CLOUDS BELOW 12,000 FEET WITH NO
SIGNIFICANT WEATHER AND/OR OBSTRUCTIONS TO VISIBILITY.

NOTE: STATIONS NOT REPORTING VARIABLES SUCH AS SKY/WEATHER OR
PRESSURE ARE PROVIDED BY RAWS AND APRS NETWORKS AND ARE NOT UNDER
NATIONAL WEATHER SERVICE QUALITY CONTROL.

...OBSERVATIONS IN AND NEAR THE EASTERN PANHANDLE OF NEBRASKA...

CITY           SKY/WX    TMP DP  RH WIND       PRES   REMARKS
PINE RIDGE     CLOUDY    47  45  93 N13G22    29.78R
CHADRON        CLOUDY    45  42  89 N17G31    29.82R
ALLIANCE       CLOUDY    48  41  76 N25G35    29.70R
SIDNEY         LGT RAIN  55  42  61 N17G32    29.66R
CRESCENT LAKE    N/A     53  40  62 N23G38      N/A
$$

...OBSERVATIONS IN NORTHERN NEBRASKA AND FAR SOUTHERN SOUTH DAKOTA...

CITY           SKY/WX    TMP DP  RH WIND       PRES   REMARKS
WINNER         FAIR      48  45  89 NE9       29.68R
VALENTINE      CLOUDY    56  39  53 N20G32    29.67S
THEDFORD       CLOUDY    61  50  66 N16G24    29.57R
AINSWORTH      CLOUDY    53  50  89 NE9       29.62F
O`NEILL        CLOUDY    55  55 100 NE8       29.63F THUNDER FOG
ORD            TSTM      59  52  77 N9        29.55S
BROKEN BOW     TSTM      52  31  44 S5        29.62R
VALENTINE NWR    N/A     56  48  73 N3          N/A
HALSEY           N/A     58  54  87 NE7         N/A
BUTTE            N/A     50  49  97 N7          N/A
CHAMBERS         N/A     55  54  96 N3          N/A
EWING            N/A     56  54  92 NE7         N/A
$$

...OBSERVATIONS IN SOUTHWEST NEBRASKA AND FAR NORTHEAST COLORADO...

CITY           SKY/WX    TMP DP  RH WIND       PRES   REMARKS
WRAY           FAIR      70  27  19 N12       29.46F
HOLYOKE        FAIR      66  41  39 NE15      29.50F
IMPERIAL       CLOUDY    71  30  21 N6        29.49R
OGALLALA       CLOUDY    67  48  50 N7        29.52S
NORTH PLATTE   CLOUDY    61  57  87 NE16      29.51S
MCCOOK         CLOUDY    73  47  39 S30G43    29.48R HAZE
LEXINGTON      CLOUDY    75  49  39 S16G24    29.49R
STAPLETON        N/A     58  54  88 CALM        N/A
GOTHENBURG       N/A     70  50  49 NE3         N/A
CALLAWAY         N/A     62  58  88 N13         N/A
$$

...OBSERVATIONS IN CENTRAL LINCOLN COUNTY AREA...

CITY           SKY/WX    TMP DP  RH WIND       PRES   REMARKS
N.P. AIRPORT   CLOUDY    61  57  87 NE16      29.51S
N.P. DOWNTOWN    N/A     63  57  82 NE12        N/A
N.P. SOUTHEAST   N/A     62  57  83 NE10        N/A
N.P. HILLCREST   N/A     63  57  81 E20G26      N/A
$$

...SOME OBSERVATIONS FROM AROUND THE REGION...

CITY           SKY/WX    TMP DP  RH WIND       PRES   REMARKS
DENVER         CLOUDY    61  26  26 N24G37    29.60S
LIMON          CLOUDY    61  20  20 W3        29.57F
ASPEN          CLOUDY    34  33  96 S9        29.80F WCI  27
LARAMIE        CLOUDY    40  30  67 N24G32    29.81R WCI  29
GILLETTE       CLOUDY    40  32  73 VRB6      29.91R
CHEYENNE       CLOUDY    41  36  82 N32G40    29.75R
SCOTTSBLUFF    LGT RAIN  49  42  77 N20G26    29.77R
GRAND ISLAND   CLOUDY    68  58  70 S18G28    29.54F
OMAHA          CLOUDY    72  51  47 SE20      29.64S
SIOUX FALLS    CLOUDY    46  41  82 NE8       29.71R
PIERRE         PTCLDY    48  38  68 NE14      29.75R
RAPID CITY     CLOUDY    44  39  82 N21G31    29.87R
BISMARCK       CLOUDY    40  38  93 W5        29.86R
KANSAS CITY    PTCLDY    71  45  39 S21       29.78R
HILL CITY      LGT RAIN  61  54  77 W15       29.66R
WICHITA        MOCLDY    74  45  35 S21G29    29.69R
DODGE CITY     CLOUDY    73  48  41 S25G36    29.62R
OKLAHOMA CITY  PTCLDY    74  45  35 S28G37    29.74F
DALLAS         PTCLDY    78  43  28 S24G41    29.86R
AMARILLO       MOCLDY    71  49  45 S33G51    29.60R
$$




USA.gov is the U.S. government's official web portal to all federal, state and local government web resources and services.